Location: Whipple Observatory
(31.6750°N, 110.9510°W)
Time: 03:24:30
(UTC-07:00)

ISS - Visible Passes

Search period start: 30 September 2022 00:00
Search period end: 10 October 2022 00:00
Orbit: 414 x 417 km, 51.6° (Epoch: 30 September)

Date Brightness Start Highest point End Pass type
(mag) Time Alt. Az. Time Alt. Az. Time Alt. Az.
01 Oct -1.3 19:19:22 10° N 19:20:23 12° NNE 19:20:23 12° NNE visible
02 Oct -1.2 20:05:33 10° NW 20:06:35 18° NNW 20:06:35 18° NNW visible
03 Oct -2.6 19:16:59 10° NNW 19:19:55 28° NE 19:19:58 28° NE visible
04 Oct -1.9 18:28:39 10° N 18:30:53 17° NE 18:33:08 10° ENE visible
04 Oct -1.5 20:04:35 10° WNW 20:06:21 26° W 20:06:21 26° W visible
05 Oct -3.8 19:15:31 10° NW 19:18:51 85° SW 19:20:00 38° SE visible
06 Oct -3.4 18:26:41 10° NNW 18:29:55 45° NE 18:33:07 10° ESE visible
06 Oct -0.7 20:05:09 10° WSW 20:06:16 11° SW 20:06:44 11° SW visible
07 Oct -1.4 19:14:48 10° WNW 19:17:28 22° SW 19:20:08 10° S visible
08 Oct -2.6 18:25:23 10° WNW 18:28:35 46° SW 18:31:47 10° SSE visible
